Weather History for KEVW - March, 2013

Change the Weather History Date:

Sunday, March 31, 2013

  Actual Average Record
Temperature  
Mean Temperature 43 °F 35 °F  
Max Temperature 59 °F 45 °F - ()
Min Temperature 27 °F 26 °F - ()
Degree Days  
Heating Degree Days 22 30  
Month to date heating degree days 997 1060  
Since 1 July heating degree days 6592 7068  
Cooling Degree Days 0 0  
Month to date cooling degree days 0 0  
Year to date cooling degree days 0 0  
Moisture  
Dew Point 16 °F    
Average Humidity 40    
Maximum Humidity 69    
Minimum Humidity 10    
Precipitation  
Precipitation 0.00 in 0.04 in - ()
Month to date precipitation 0.41 0.86  
Year to date precipitation 0.88 2.01  
Sea Level Pressure  
Sea Level Pressure 30.02 in    
Wind  
Wind Speed 7 mph (WSW)    
Max Wind Speed 16 mph    
Max Gust Speed 28 mph    
Visibility 10 miles    
Events      
T = Trace of Precipitation, MM = Missing Value Source: NWS Daily Summary

Daily Weather History Graph

Daily Weather History Graph

Search for Another Location

Airport or City:

Trip Planner

Search our weather history database for the weather conditions in past years. The results will help you decide how hot, cold, wet, or windy it might be!

Date:

Astronomy

Mar. 31, 2013 Rise Set
Actual Time 7:08 AM MDT 7:48 PM MDT
Civil Twilight 6:40 AM MDT 8:16 PM MDT
Nautical Twilight 6:07 AM MDT 8:49 PM MDT
Astronomical Twilight 5:33 AM MDT 9:23 PM MDT
Moon 12:00 AM MDT (3/31) 9:56 AM MDT (3/31)
Length of Visible Light 13h 35m
Length of Day
12h 40m
Waning Gibbous, 77% of the Moon is Illuminated
Mar 31
Waning Gibbous
Apr 2
Last Quarter
Apr 10
New
Apr 18
First Quarter
Apr 25
Full

Hourly Weather History & Observations

Time (MDT) Temp. Windchill Dew Point Humidity Pressure Visibility Wind Dir Wind Speed Gust Speed Precip Events Conditions
12:53 AM 37.0 °F 32.4 °F 25.0 °F 62% 30.10 in 10.0 mi North 5.8 mph - N/A   Clear
1:53 AM 36.0 °F 31.1 °F 24.1 °F 62% 30.10 in 10.0 mi NE 5.8 mph - N/A   Clear
2:53 AM 32.0 °F 27.5 °F 21.9 °F 66% 30.09 in 10.0 mi NE 4.6 mph - N/A   Clear
3:53 AM 34.0 °F - 21.0 °F 59% 30.07 in 10.0 mi Calm Calm - N/A   Clear
4:53 AM 30.9 °F 25.2 °F 19.9 °F 64% 30.08 in 10.0 mi SSE 5.8 mph - N/A   Clear
5:53 AM 28.9 °F 25.2 °F 19.9 °F 69% 30.08 in 10.0 mi South 3.5 mph - N/A   Clear
6:53 AM 33.1 °F - 21.0 °F 61% 30.06 in 10.0 mi Calm Calm - N/A   Clear
7:53 AM 30.0 °F 24.1 °F 21.0 °F 69% 30.11 in 10.0 mi SSW 5.8 mph - N/A   Clear
8:53 AM 35.1 °F 30.1 °F 25.0 °F 67% 30.10 in 10.0 mi SSW 5.8 mph - N/A   Clear
9:53 AM 39.9 °F 34.5 °F 26.1 °F 58% 30.08 in 10.0 mi SW 8.1 mph - N/A   Clear
10:53 AM 48.0 °F - 23.0 °F 37% 30.05 in 10.0 mi WSW 16.1 mph - N/A   Clear
11:53 AM 53.1 °F - 19.9 °F 27% 30.03 in 10.0 mi WSW 13.8 mph 27.6 mph N/A   Clear
12:53 PM 55.9 °F - 6.1 °F 14% 30.01 in 10.0 mi West 12.7 mph 24.2 mph N/A   Clear
1:53 PM 55.9 °F - 1.0 °F 11% 30.00 in 10.0 mi WSW 11.5 mph 19.6 mph N/A   Clear
2:53 PM 57.0 °F - 9.0 °F 15% 29.99 in 10.0 mi WNW 9.2 mph 19.6 mph N/A   Clear
3:53 PM 59.0 °F - 9.0 °F 14% 29.95 in 10.0 mi West 8.1 mph 18.4 mph N/A   Clear
4:53 PM 59.0 °F - 3.9 °F 11% 29.94 in 10.0 mi West 9.2 mph 18.4 mph N/A   Clear
5:53 PM 57.9 °F - 5.0 °F 12% 29.94 in 10.0 mi West 8.1 mph 17.3 mph N/A   Clear
6:53 PM 55.0 °F - 9.0 °F 16% 29.92 in 10.0 mi West 10.4 mph - N/A   Clear
7:53 PM 48.0 °F - 14.0 °F 26% 29.96 in 10.0 mi West 8.1 mph - N/A   Clear
8:53 PM 46.9 °F - 14.0 °F 27% 29.95 in 10.0 mi WNW 8.1 mph - N/A   Clear
9:53 PM 45.0 °F 42.6 °F 15.1 °F 30% 29.94 in 10.0 mi East 4.6 mph - N/A   Clear
10:53 PM 43.0 °F 40.3 °F 12.9 °F 30% 29.91 in 10.0 mi South 4.6 mph - N/A   Clear
11:53 PM 37.0 °F 31.6 °F 18.0 °F 46% 29.91 in 10.0 mi ESE 6.9 mph - N/A   Clear